Flag for U.S.A. Weather past 2 weeks in Bryan – College Station, Texas, U.S.A.

Now
81 °F

Clear.


Feels Like: 85 °F
Forecast: 75 / 90 °F
Wind: 7 mph from Southeast

Location: Easterwood Field

Current Time: Aug 28, 2014 at 10:58:44 PM

Latest Report: Aug 28, 2014 at 9:53 PM


Visibility: 10 mi

Pressure: 29.89 "Hg

Humidity: 72%

Dew point: 71 °F

Location of Bryan – College StationLocation

Historic Weather in Bryan – College Station — Graph

°F

Bryan – College Station temperature yesterday

Maximum temperature yesterday: 95 °F (at 2:53 PM)
Minimum temperature yesterday: 75 °F (at 6:53 AM)
Average temperature yesterday: 85 °F

Past Weeks' High & Low Weather Summary

 TemperatureHumidityPressure
High98 °F (Aug 16, 3:53 PM)97% (Aug 19, 5:53 AM)30.08 "Hg (Aug 19, 5:53 AM)
Low71 °F (Aug 14, 6:53 AM)29% (Aug 27, 2:53 PM)29.83 "Hg (Aug 18, 5:53 PM)
Average85 °F64%29.95 "Hg
* Reported Aug 13 8:53 PM — Aug 28 8:53 PM, Bryan – College Station, Weather by CustomWeather, © 2014

Note: Actual official high and low records may vary slightly from our data, if they occured in-between our weather recording intervals... More about our weather records

Advertising

Bryan – College Station weather history for previous 24 hours

 ConditionsComfort  
Time TempWeatherWind HumidityBarometerVisibility
8:53 PM
Aug 28
83 °FPassing clouds.8 mph68%29.86 "Hg10 mi
7:53 PM84 °FScattered clouds.10 mph67%29.84 "Hg10 mi
6:53 PM89 °FPassing clouds.14 mph55%29.83 "Hg10 mi
5:53 PM88 °FSunny.8 mph59%29.84 "Hg10 mi
4:53 PM88 °FSunny.10 mph59%29.86 "Hg10 mi
3:53 PM86 °FPassing clouds.8 mph70%29.88 "Hg10 mi
2:53 PM80 °FLight rain. Mostly cloudy.8 mph81%29.91 "Hg5 mi
1:53 PM78 °FLight rain. Overcast.10 mph87%29.93 "Hg10 mi
12:53 PM90 °FBroken clouds.7 mph56%29.91 "Hg10 mi
11:53 AM86 °FLight rain. Cloudy.9 mph67%29.94 "Hg10 mi
10:53 AM87 °FBroken clouds.9 mph65%29.96 "Hg10 mi
9:53 AM84 °FOvercast.8 mph72%29.95 "Hg10 mi
8:53 AM81 °FPassing clouds.7 mph79%29.94 "Hg10 mi
8:00 AM77 °FPartly sunny.5 mph85%29.96 "Hg10 mi
6:53 AM75 °FClear.6 mph88%29.93 "Hg10 mi
5:53 AM76 °FClear.3 mph85%29.92 "Hg10 mi
4:53 AM77 °FClear.5 mph82%29.92 "Hg10 mi
3:53 AM78 °FClear.3 mph79%29.93 "Hg10 mi
2:53 AM78 °FClear.6 mph79%29.94 "Hg10 mi
1:53 AM79 °FClear.5 mph77%29.95 "Hg10 mi
12:53 AM80 °FPassing clouds.6 mph74%29.96 "Hg10 mi
11:53 PM
Aug 27
80 °FClear.5 mph74%29.96 "Hg10 mi
10:53 PM82 °FClear.5 mph70%29.97 "Hg10 mi
Weather by CustomWeather, © 2014

See weather overviewHow to use our weather pages